Location: El Cambur
(10.2851°N, 67.4340°W)
Time: 04:47:38
(UTC+00:00)

Centaur D-1AR AC-36 - Pass Details

Date: 13 June 2024
Orbit: 528 x 36345 km, 22.2° (Epoch: 20 July)

Event Time Altitude Azimuth Distance (km) Brightness Sun altitude
Rises 22:47:23 0° 300° (WNW) 3,188 8.1 0.1°
Reaches altitude 10° 22:48:55 10° 307° (NW) 2,607 6.6 -0.2°
Maximum altitude 22:54:28 50° 25° (NNE) 2,220 4.4 -1.5°
Enters shadow 00:00:48 - 103° (ESE) 21,460 8.7 -16.1°
Exits shadow 00:17:35 - 104° (ESE) 24,577 9.0 -19.8°
Drops below altitude 10° 08:44:30 10° 116° (ESE) 14,257 8.9 -19.4°
Sets 08:54:32 0° 110° (ESE) 12,709 8.8 -17.2°
